Regional Weather Roundup
Issued by NWS Grand Forks, ND

Home | Current Version | Previous Version | Graphics & Text | Print | Product List | Glossary On
Versions: 1 2 3 4 5 6 7 8 9 10 11 12 13 14 15 16 17 18 19 20 21 22 23 24 25 26 27 28 29 30 31 32 33 34 35 36 37 38 39 40 41 42 43 44 45 46 47 48 49 50
000
ASUS43 KFGF 221810
RWRFGF
PRAIRIE TO PINES  WEATHER ROUNDUP
NATIONAL WEATHER SERVICE EASTERN NORTH DAKOTA/GRAND FORKS ND
100 PM CDT FRI AUG 22 2014

 **SATELLITE DATA USED TO AUGMENT SKY COVER AT AUTOMATED STATIONS**
 *****  WEATHER ACROSS EASTERN NORTH DAKOTA  *****

CITY           SKY/WX    TMP DP  RH WIND       PRES   REMARKS
GRAND FORKS    CLOUDY    68  64  87 NW13      30.02R
6HR MIN TEMP:  66; 6HR MAX TEMP:  68;

GRAND FRKS AFB CLOUDY    67  66  99 N9        30.03R
GRAND FRKS NWS   N/A     59 N/A N/A N10         N/A
DEVILS LAKE    CLOUDY    66  57  72 N10       30.05R
6HR MIN TEMP:  63; 6HR MAX TEMP:  66;

FARGO          CLOUDY    72  67  84 N8        30.00R
WAHPETON ARPT  MOCLDY    77  66  69 NE5       29.99R
$$

 ***** WEATHER ACROSS CENTRAL AND WESTERN NORTH DAKOTA  *****

CITY           SKY/WX    TMP DP  RH WIND       PRES   REMARKS
BISMARCK       CLOUDY    75  63  66 CALM      30.04S
6HR MIN TEMP:  65; 6HR MAX TEMP:  76; 6HR PCP:  0.01;

MINOT          CLOUDY    64  58  80 N10       30.09S
6HR MIN TEMP:  59; 6HR MAX TEMP:  64; 6HR PCP:  0.01;

JAMESTOWN      CLOUDY    72  66  81 N9        30.04S
6HR MIN TEMP:  67; 6HR MAX TEMP:  72; 6HR PCP:  0.01;

MINOT AFB      CLOUDY    64  63  97 N12       30.09S
GARRISON         N/A     66  61  84 NE9       30.07S
WILLISTON      CLOUDY    68  53  58 NE10      30.10S
6HR MIN TEMP:  60; 6HR MAX TEMP:  69;

DICKINSON      LGT RAIN  64  61  90 NE12      30.06S FOG
6HR MIN TEMP:  62; 6HR MAX TEMP:  68; 6HR PCP:  0.10;

HETTINGER      CLOUDY    67  59  75 NE5       30.09S
6HR MIN TEMP:  59; 6HR MAX TEMP:  67;

$$

 *****  OTHER AIRPORT OBSERVATIONS IN OUR AREA  *****

CITY           SKY/WX    TMP DP  RH WIND       PRES   REMARKS
WALHALLA         N/A     68  64  88 N17G24    30.05S
GRAFTON AIRPOR CLOUDY    66  63  88 N12       30.02S
VALLEY CITY AR CLOUDY    72  72 100 N5        30.04R
CANDO          CLOUDY    64  59  82 N10G18    30.08S
CAVALIER APRT  CLOUDY    68  63  83 N13       30.03F
GWINNER        CLOUDY    73  72  94 NW7       30.02F
ROLLA          CLOUDY    63  63 100 N12G18    30.10F
 ***** THE ABOVE OBSERVATIONS ARE NON NWS ARE NOT QUALITY
       CONTROLLED AND MAY MIS-REPORT RAIN FOR SNOW...
$$

  *****  WEATHER ACROSS NORTHERN MINNESOTA  *****

CITY           SKY/WX    TMP DP  RH WIND       PRES   REMARKS
FLAG ISLAND    CLOUDY    70  64  83 N3        30.00S
WARROAD        CLOUDY    70  64  83 NE5       30.01S
ROSEAU         RAIN      70  64  83 NE6       30.01R
HALLOCK        CLOUDY    70  64  83 NW12      30.01S
THF RVR FALLS  CLOUDY    70  66  88 NW10      29.99R
6HR MIN TEMP:  68; 6HR MAX TEMP:  72; 6HR PCP:  0.04;

BAUDETTE       CLOUDY    73  66  78 VRB5      30.00S
6HR MIN TEMP:  64; 6HR MAX TEMP:  74;

WASKISH        PTSUNNY   73  66  78 CALM      29.99S
CROOKSTON      CLOUDY    68  66  94 NW12      30.00R FOG
$$
  *****  WEATHER ACROSS CENTRAL AND WEST MINNESOTA  *****

CITY           SKY/WX    TMP DP  RH WIND       PRES   REMARKS
FOSSTON        RAIN      70  66  88 CALM      30.00R
BEMIDJI        MOSUNNY   75  64  70 SE5       29.99F
PARK RAPIDS    MOSUNNY   76  65  68 E7        29.98F
6HR MIN TEMP:  67; 6HR MAX TEMP:  77;

ELBOW LAKE     MOCLDY    78  68  72 CALM      29.99S
6HR MIN TEMP:  68; 6HR MAX TEMP:  79;

WADENA         SUNNY     75  66  73 E5        29.99S
DETROIT LAKES  MOSUNNY   77  68  73 NW5       30.00S
MOORHEAD       CLOUDY    72  72 100 N8        30.00R
FERGUS FALLS   MOSUNNY   79  64  61 CALM      29.97S
MORRIS MN      SUNNY     81  66  61 N5        29.97F
STAPLES        CLOUDY    72  66  83 E3        30.00S
$$
  *****  WEATHER ELSEWHERE ACROSS MINNESOTA  *****

CITY           SKY/WX    TMP DP  RH WIND       PRES   REMARKS
DULUTH         CLOUDY    67  63  87 SE6       30.00S FOG
6HR MIN TEMP:  62; 6HR MAX TEMP:  67;

INTRNTL FALLS  CLOUDY    71  64  78 NE6       30.00F
6HR MIN TEMP:  64; 6HR MAX TEMP:  71;

ELY            CLOUDY    68  64  88 CALM      30.02R
CLOQUET        CLOUDY    64  63  94 E5        30.01S
WHEATON        MOSUNNY   75  68  78 CALM      29.99F
BRAINERD       CLOUDY    69  65  86 SW3       30.01R
6HR MIN TEMP:  64; 6HR MAX TEMP:  70;

HIBBING        CLOUDY    72  65  78 SE3       30.00S
6HR MIN TEMP:  65; 6HR MAX TEMP:  73;

ALEXANDRIA     MOSUNNY   79  66  64 NW5       30.01S
6HR MIN TEMP:  69; 6HR MAX TEMP:  80;

SAINT CLOUD    CLOUDY    77  68  73 N7        29.98S
6HR MIN TEMP:  69; 6HR MAX TEMP:  76;

MINNEAPOLIS    CLOUDY    75  68  78 CALM      29.98R
6HR MIN TEMP:  71; 6HR MAX TEMP:  75;

$$

  *****  WEATHER ACROSS SOUTH DAKOTA  *****

CITY           SKY/WX    TMP DP  RH WIND       PRES   REMARKS
SIOUX FALLS    PTSUNNY   85  70  60 E8        29.98S
6HR MIN TEMP:  63; 6HR MAX TEMP:  85;

BROOKINGS      NOT AVBL
WATERTOWN      MOSUNNY   82  69  64 E7        30.00S
6HR MIN TEMP:  61; 6HR MAX TEMP:  82;

HURON          MOSUNNY   83  67  58 NE8       29.97S
6HR MIN TEMP:  59; 6HR MAX TEMP:  84;

SISSETON         N/A     74  70  87 VRB5      29.98F
ABERDEEN       CLOUDY    73  67  81 N8        30.01R
6HR MIN TEMP:  64; 6HR MAX TEMP:  73; 6HR PCP: TRACE;

MITCHELL       MOSUNNY   86  66  51 VRB5      29.98S
PIERRE         CLOUDY    76  67  73 E12       29.98F
6HR MIN TEMP:  65; 6HR MAX TEMP:  76;

MOBRIDGE       LGT RAIN  70  67  90 N10       30.03S
RAPID CITY     CLOUDY    71  62  73 VRB5      30.07F
6HR MIN TEMP:  61; 6HR MAX TEMP:  72;

$$

  *****  SOME WEATHER IN NEARBY STATES *****

CITY           SKY/WX    TMP DP  RH WIND       PRES   REMARKS
GLASGOW MT     LGT RAIN  61  58  90 E14       30.11S FOG
6HR MIN TEMP:  58; 6HR MAX TEMP:  61; 6HR PCP:  0.09;

GREAT FALLS MT LGT RAIN  54  52  94 N7        30.13S
6HR MIN TEMP:  50; 6HR MAX TEMP:  53; 6HR PCP:  0.16;

CHEYENNE WY    CLOUDY    70  48  45 S7        30.19S
6HR MIN TEMP:  59; 6HR MAX TEMP:  71; 6HR PCP:  0.01;

SCOTTSBLUFF NE CLOUDY    74  53  48 SE5       30.09F
6HR MIN TEMP:  62; 6HR MAX TEMP:  74;

OMAHA NE       MOSUNNY   89  74  60 VRB3      29.92S HX  98
6HR MIN TEMP:  73; 6HR MAX TEMP:  89;

DES MOINES IA  CLOUDY    87  76  69 NW6       29.93F HX  97
6HR MIN TEMP:  73; 6HR MAX TEMP:  87;

DAVENPORT IA   CLOUDY    79  75  87 SW14      29.96S
6HR MIN TEMP:  70; 6HR MAX TEMP:  79; 6HR PCP:  0.39;

CHICAGO IL     CLOUDY    81  73  76 W5        29.94F
6HR MIN TEMP:  74; 6HR MAX TEMP:  81;

EAU CLAIRE WI  SUNNY     82  71  69 S7        29.94S
6HR MIN TEMP:  71; 6HR MAX TEMP:  82;

LA CROSSE WI   CLOUDY    79  73  82 CALM      29.94S
6HR MIN TEMP:  74; 6HR MAX TEMP:  80;

$$

  *****  SOME NATIONAL WEATHER *****

CITY           SKY/WX    TMP DP  RH WIND       PRES   REMARKS
LA GUARDIA NY  PTSUNNY   75  63  66 NE14      30.02F
6HR MIN TEMP:  69; 6HR MAX TEMP:  76;

RALEIGH NC     PTSUNNY   90  71  53 VRB5      30.01F HX  96
6HR MIN TEMP:  76; 6HR MAX TEMP:  90;

ATLANTA GA     MOSUNNY   91  71  51 W10G17    30.10F HX  97
6HR MIN TEMP:  75; 6HR MAX TEMP:  91;

NEW ORLEANS LA MOSUNNY   91  73  55 NE6       30.11F HX  99
6HR MIN TEMP:  75; 6HR MAX TEMP:  91;

OKLAHOMA CITY  SUNNY     96  67  38 SW17G25   29.98F HX 100
6HR MIN TEMP:  74; 6HR MAX TEMP:  96;

ALBUQUERQUE NM LGT RAIN  63  57  81 N5        30.23S
6HR MIN TEMP:  61; 6HR MAX TEMP:  70; 6HR PCP:  0.15;

SALT LAKE CITY PTSUNNY   76  46  34 S12       29.98S
6HR MIN TEMP:  67; 6HR MAX TEMP:  77;

LOS ANGELES CA PTSUNNY   73  63  70 W10       30.00R
6HR MIN TEMP:  67; 6HR MAX TEMP:  73;

BOISE ID       SUNNY     71  37  28 NW8       29.93F


USA.gov is the U.S. government's official web portal to all federal, state and local government web resources and services.